Scottsboro, AL

4:15 AM CST on December 14, 2017 (GMT -0600)
Scottsboro

Weather History for K4A6 - November, 2013

Change the Weather History Date:

Tuesday, November 19, 2013

  Actual Average (KHSV) Record (KHSV)
Temperature  
Mean Temperature 46 °F -  
Max Temperature 55 °F 62 °F 81 °F (1942)
Min Temperature 35 °F 41 °F 21 °F (1951)
Degree Days  
Heating Degree Days 19    
Moisture  
Dew Point 26 °F    
Average Humidity 47    
Maximum Humidity 81    
Minimum Humidity 26    
Precipitation  
Precipitation 0.00 in - - ()
Sea Level Pressure  
Sea Level Pressure 30.17 in    
Wind  
Wind Speed 10 mph (NE)    
Max Wind Speed 18 mph    
Max Gust Speed 25 mph    
Visibility 10 miles    
Events      
Averages and records for this station are not official NWS values.
T = Trace of Precipitation, MM = Missing Value Source: NWS Daily Summary

Daily Weather History Graph

Daily Weather History Graph

Search for Another Location

Airport or City:

Trip Planner

Search our weather history database for the weather conditions in past years. The results will help you decide how hot, cold, wet, or windy it might be!

Date:

Astronomy

Nov. 19, 2013 Rise Set
Actual Time 6:21 AM CST 4:36 PM CST
Civil Twilight 5:54 AM CST 5:03 PM CST
Nautical Twilight 5:24 AM CST 5:34 PM CST
Astronomical Twilight 4:54 AM CST 6:04 PM CST
Moon 6:28 PM CST (11/19) 7:59 AM CST (11/19)
Length of Visible Light 11h 08m
Length of Day
10h 14m
Waning Gibbous, 96% of the Moon is Illuminated
Nov 19
Waning Gibbous
Nov 25
Last Quarter
Dec 2
New
Dec 9
First Quarter
Dec 17
Full

Hourly Weather History & Observations

Time (CST) Temp. Windchill Dew Point Humidity Pressure Visibility Wind Dir Wind Speed Gust Speed Precip Events Conditions
12:15 AM 48.2 °F - 28.4 °F 46% 30.17 in 10.0 mi NNE 11.5 mph 20.7 mph N/A   Clear
12:35 AM 48.2 °F - 26.6 °F 43% 30.16 in 10.0 mi NNE 12.7 mph 23.0 mph N/A   Clear
12:55 AM 48.2 °F - 26.6 °F 43% 30.16 in 10.0 mi NNE 15.0 mph 25.3 mph N/A   Clear
1:15 AM 46.4 °F 40.7 °F 26.6 °F 46% 30.16 in 10.0 mi NNE 12.7 mph 19.6 mph N/A   Clear
1:35 AM 46.4 °F 41.5 °F 26.6 °F 46% 30.16 in 10.0 mi NNE 10.4 mph 17.3 mph N/A   Clear
1:55 AM 44.6 °F 38.4 °F 26.6 °F 49% 30.16 in 10.0 mi NNE 12.7 mph - N/A   Clear
2:15 AM 46.4 °F 41.1 °F 24.8 °F 43% 30.16 in 10.0 mi NNE 11.5 mph 19.6 mph N/A   Clear
2:35 AM 44.6 °F 38.4 °F 24.8 °F 46% 30.16 in 10.0 mi NNE 12.7 mph 18.4 mph N/A   Clear
2:55 AM 44.6 °F 38.8 °F 24.8 °F 46% 30.16 in 10.0 mi NNE 11.5 mph - N/A   Clear
3:15 AM 44.6 °F 39.2 °F 24.8 °F 46% 30.16 in 10.0 mi NNE 10.4 mph 17.3 mph N/A   Clear
3:35 AM 44.6 °F 38.1 °F 26.6 °F 49% 30.17 in 10.0 mi NNE 13.8 mph 17.3 mph N/A   Clear
3:55 AM 44.6 °F 38.8 °F 26.6 °F 49% 30.17 in 10.0 mi NNE 11.5 mph 21.9 mph N/A   Clear
4:15 AM 44.6 °F 38.8 °F 26.6 °F 49% 30.17 in 10.0 mi NNE 11.5 mph - N/A   Clear
4:35 AM 42.8 °F 37.5 °F 26.6 °F 53% 30.17 in 10.0 mi NNE 9.2 mph - N/A   Clear
4:55 AM 41.0 °F 35.8 °F 26.6 °F 57% 30.17 in 10.0 mi NE 8.1 mph - N/A   Clear
5:15 AM 41.0 °F 35.8 °F 24.8 °F 53% 30.17 in 10.0 mi NE 8.1 mph - N/A   Clear
5:35 AM 41.0 °F 34.7 °F 24.8 °F 53% 30.17 in 10.0 mi NNE 10.4 mph - N/A   Clear
5:55 AM 41.0 °F 34.3 °F 23.0 °F 49% 30.18 in 10.0 mi NNE 11.5 mph 17.3 mph N/A   Clear
6:15 AM 41.0 °F 34.7 °F 23.0 °F 49% 30.18 in 10.0 mi NNE 10.4 mph 17.3 mph N/A   Clear
6:35 AM 41.0 °F 37.1 °F 23.0 °F 49% 30.19 in 10.0 mi NNE 5.8 mph - N/A   Clear
6:55 AM 39.2 °F 37.0 °F 23.0 °F 52% 30.20 in 10.0 mi NE 3.5 mph - N/A   Clear
7:15 AM 41.0 °F 39.0 °F 24.8 °F 53% 30.20 in 10.0 mi NE 3.5 mph - N/A   Clear
7:35 AM 44.6 °F 43.1 °F 24.8 °F 46% 30.21 in 10.0 mi ENE 3.5 mph - N/A   Clear
7:55 AM 44.6 °F 38.8 °F 24.8 °F 46% 30.21 in 10.0 mi NE 11.5 mph 17.3 mph N/A   Clear
8:15 AM 46.4 °F 40.7 °F 24.8 °F 43% 30.22 in 10.0 mi ENE 12.7 mph 16.1 mph N/A   Clear
8:35 AM 46.4 °F 40.1 °F 24.8 °F 43% 30.22 in 10.0 mi NE 15.0 mph 23.0 mph N/A   Clear
8:55 AM 46.4 °F 41.9 °F 26.6 °F 46% 30.23 in 10.0 mi East 9.2 mph - N/A   Clear
9:15 AM 46.4 °F 40.7 °F 26.6 °F 46% 30.23 in 10.0 mi NE 12.7 mph - N/A   Clear
9:35 AM 48.2 °F - 24.8 °F 40% 30.23 in 10.0 mi NE 13.8 mph 18.4 mph N/A   Clear
9:55 AM 48.2 °F - 24.8 °F 40% 30.23 in 10.0 mi NE 13.8 mph 19.6 mph N/A   Clear
10:15 AM 50.0 °F - 24.8 °F 37% 30.24 in 10.0 mi NE 11.5 mph 17.3 mph N/A   Clear
10:35 AM 50.0 °F - 24.8 °F 37% 30.22 in 10.0 mi NNE 17.3 mph 21.9 mph N/A   Clear
10:55 AM 50.0 °F - 21.2 °F 32% 30.21 in 10.0 mi NE 18.4 mph 23.0 mph N/A   Clear
11:15 AM 51.8 °F - 23.0 °F 33% 30.20 in 10.0 mi NE 13.8 mph 21.9 mph N/A   Clear
11:35 AM 53.6 °F - 23.0 °F 30% 30.19 in 10.0 mi NNE 15.0 mph 19.6 mph N/A   Clear
11:55 AM 53.6 °F - 23.0 °F 30% 30.19 in 10.0 mi NE 15.0 mph 21.9 mph N/A   Clear
12:15 PM 53.6 °F - 23.0 °F 30% 30.17 in 10.0 mi NE 15.0 mph - N/A   Clear
12:35 PM 55.4 °F - 23.0 °F 29% 30.17 in 10.0 mi NNE 15.0 mph 21.9 mph N/A   Clear
12:55 PM 55.4 °F - 21.2 °F 26% 30.16 in 10.0 mi ENE 11.5 mph 24.2 mph N/A   Clear
1:15 PM 53.6 °F - 19.4 °F 26% 30.14 in 10.0 mi NE 12.7 mph 20.7 mph N/A   Clear
1:35 PM 53.6 °F - 21.2 °F 28% 30.14 in 10.0 mi NE 10.4 mph 18.4 mph N/A   Clear
1:55 PM 53.6 °F - 21.2 °F 28% 30.14 in 10.0 mi NE 8.1 mph - N/A   Clear
2:15 PM 53.6 °F - 21.2 °F 28% 30.13 in 10.0 mi NE 11.5 mph 16.1 mph N/A   Clear
2:35 PM 53.6 °F - 21.2 °F 28% 30.13 in 10.0 mi NE 8.1 mph - N/A   Clear
2:55 PM 53.6 °F - 21.2 °F 28% 30.14 in 10.0 mi NE 5.8 mph - N/A   Clear
3:15 PM 53.6 °F - 21.2 °F 28% 30.14 in 10.0 mi NE 4.6 mph - N/A   Clear
3:35 PM 53.6 °F - 23.0 °F 30% 30.14 in 10.0 mi ENE 8.1 mph - N/A   Clear
3:55 PM 53.6 °F - 23.0 °F 30% 30.14 in 10.0 mi NE 8.1 mph - N/A   Clear
4:15 PM 51.8 °F - 26.6 °F 38% 30.15 in 10.0 mi North 5.8 mph - N/A   Clear
4:35 PM 50.0 °F - 26.6 °F 40% 30.15 in 10.0 mi North 5.8 mph - N/A   Clear
4:55 PM 50.0 °F - 26.6 °F 40% 30.15 in 10.0 mi NNE 5.8 mph - N/A   Clear
5:15 PM 48.2 °F - 26.6 °F 43% 30.18 in 10.0 mi NW 4.6 mph - N/A   Clear
5:35 PM 48.2 °F - 28.4 °F 46% 30.16 in 10.0 mi ENE 3.5 mph - N/A   Clear
5:55 PM 48.2 °F - 28.4 °F 46% 30.18 in 10.0 mi NNW 3.5 mph - N/A   Clear
6:15 PM 46.4 °F - 28.4 °F 50% 30.16 in 10.0 mi Calm Calm - N/A   Clear
6:35 PM 46.4 °F - 28.4 °F 50% 30.17 in 10.0 mi Calm Calm - N/A   Clear
6:55 PM 46.4 °F - 32.0 °F 57% 30.17 in 10.0 mi Calm Calm - N/A   Clear
7:15 PM 46.4 °F 45.2 °F 32.0 °F 57% 30.17 in 10.0 mi NNE 3.5 mph - N/A   Clear
7:35 PM 46.4 °F - 28.4 °F 50% 30.17 in 10.0 mi Calm Calm - N/A   Clear
7:55 PM 44.6 °F - 32.0 °F 61% 30.17 in 10.0 mi Calm Calm - N/A   Clear
8:15 PM 44.6 °F - 32.0 °F 61% 30.17 in 10.0 mi Calm Calm - N/A   Partly Cloudy
8:35 PM 42.8 °F - 32.0 °F 66% 30.18 in 10.0 mi Calm Calm - N/A   Scattered Clouds
8:55 PM 41.0 °F 39.0 °F 30.2 °F 65% 30.16 in 10.0 mi ENE 3.5 mph - N/A   Scattered Clouds
9:15 PM 41.0 °F 39.0 °F 32.0 °F 70% 30.17 in 10.0 mi NNE 3.5 mph - N/A   Mostly Cloudy
9:35 PM 41.0 °F 39.0 °F 32.0 °F 70% 30.17 in 10.0 mi NNE 3.5 mph - N/A   Mostly Cloudy
9:55 PM 39.2 °F - 32.0 °F 75% 30.17 in 10.0 mi Calm Calm - N/A   Mostly Cloudy
10:15 PM 39.2 °F - 32.0 °F 75% 30.17 in 10.0 mi Calm Calm - N/A   Mostly Cloudy
10:35 PM 39.2 °F - 30.2 °F 70% 30.17 in 10.0 mi Calm Calm - N/A   Scattered Clouds
10:55 PM 37.4 °F - 30.2 °F 75% 30.17 in 10.0 mi Calm Calm - N/A   Partly Cloudy
11:15 PM 37.4 °F - 30.2 °F 75% 30.17 in 10.0 mi Calm Calm - N/A   Partly Cloudy
11:35 PM 37.4 °F - 28.4 °F 70% 30.17 in 10.0 mi Calm Calm - N/A   Partly Cloudy
11:55 PM 35.6 °F - 30.2 °F 81% 30.17 in 10.0 mi Calm Calm - N/A   Scattered Clouds